ראשי / חיפושים אחרונים

חיפושים אחרונים

לוחית
סוג רכב
דגם
שנה
תאריך חיפוש
שעת חיפוש
24429904 סקודה צ'כיה SCALA FL 2025 02/09/2026 03:44:58
8207375 פורד גרמניה FOCUS 2012 02/09/2026 03:44:56
6046565 פורד קנדה EDGE 2008 02/09/2026 03:44:54
88964403 מזדה יפן MAZDA3 2024 02/09/2026 03:44:52
6463773 סקודה צ'כיה YETI 2011 02/09/2026 03:44:51
66517702 טויוטה יפן RAV 4 HYBRID 2021 02/09/2026 03:44:51
4199000 הונדה יפן - 1992 02/09/2026 03:44:50
9364312 סוזוקי הונגריה SPLASH 2013 02/09/2026 03:44:48
40519203 פולקסווגן מקסיקה TIGUAN ALLSPACE 2023 02/09/2026 03:44:46
8516973 יונדאי קוריאה הדרומית IX35 2010 02/09/2026 03:44:46
55154202 סקודה צ'כיה SUPERB 2021 02/09/2026 03:44:44
77722201 מרצדס גרמניה AMG GT 63S 4MAT 2020 02/09/2026 03:44:43
9975550 יגואר בריטניה XK8 2002 02/09/2026 03:44:42
2198274 ימהה יפן - 2010 02/09/2026 03:44:41
3721155 דיילים ד.קוריא - 2017 02/09/2026 03:44:40
8533929 מזדה יפן 323 LANTIS 2001 02/09/2026 03:44:38
39556403 מזדה יפן MAZDA CX-5 2023 02/09/2026 03:44:36
1074068 סוזוקי יפן SWIFT 2009 02/09/2026 03:44:32
3983552 קיה קוריאה הדרומית PICANTO 2013 02/09/2026 03:44:31
66517702 טויוטה יפן RAV 4 HYBRID 2021 02/09/2026 03:44:31
22777802 אאודי גרמניה RS3 SPORTBACK 2020 02/09/2026 03:44:30
83666603 יונדאי קוריאה הדרומית KONA 2024 02/09/2026 03:44:28
1909923 סובארו יפן B4 2000 02/09/2026 03:44:26
4816273 פולריס - 2010 02/09/2026 03:44:26
66202201 אאודי גרמניה A3 SB E-TRON 2019 02/09/2026 03:44:23
37508204 ב מ וו ארהב" X5 XDRIVE30D 2025 02/09/2026 03:44:22
89750103 טויוטה יפן RAV4 HYBRID 2024 02/09/2026 03:44:21
8025066 טויוטה יפן COROLLA 2008 02/09/2026 03:44:19
43358804 טויוטה יפן COROLLA CROSS 2025 02/09/2026 03:44:16
3818771 מזדה יפן MAZDA 3 2010 02/09/2026 03:44:15
76183304 בי ווי די סין BYD ATTO 2 DM-I 2026 02/09/2026 03:44:14
3714956 דאף-בריטניה - 2005 02/09/2026 03:44:12
1116911 יונדאי קוריאה הדרומית I35 2013 02/09/2026 03:44:09
19346901 רנו צרפת KANGOO 2018 02/09/2026 03:44:08
6983233 דאף אנגליה - 2016 02/09/2026 03:44:08
1016713 איווקו איטליה - 2006 02/09/2026 03:44:07
74660002 פרארי איטליה F8 SPIDER 2022 02/09/2026 03:44:06
6737180 פיג'ו צרפת 3008 2017 02/09/2026 03:44:06
1038732 יונדאי צ'כיה I30 2014 02/09/2026 03:44:04
69845802 ב מ וו גרמניה 745E 2022 02/09/2026 03:44:04
36758101 איסוזו טורקיה - 2019 02/09/2026 03:44:04
4635752 רנו צרפת GRAND SCENIC 2013 02/09/2026 03:44:03
9647972 עטרייה מתכת - 2011 02/09/2026 03:44:03
3534776 מיצובישי יפן LANCER 2011 02/09/2026 03:44:02
87904603 פיג'ו ספרד 2008 2025 02/09/2026 03:43:59
7050127 מזדה יפן LANTIS 323 1999 02/09/2026 03:43:58
1905953 סקודה צ'כיה RAPID 2014 02/09/2026 03:43:55
25586503 מרצדס הונגריה CLA180 2023 02/09/2026 03:43:51
70887601 קיה קוריאה הדרומית NIRO 2020 02/09/2026 03:43:44
50446403 טסלה גרמניה MODEL Y 2023 02/09/2026 03:43:43
85888903 אאודי סלובקיה Q8 2024 02/09/2026 03:43:41
5188666 מיצובישי יפן LANCER 2009 02/09/2026 03:43:40
8953573 יונדאי הודו I20 2010 02/09/2026 03:43:26
43485903 פיאט ספרד DOBLO 2023 02/09/2026 03:43:23
61739702 טסלה סין MODEL 3 2021 02/09/2026 03:43:04
2926561 טויוטה יפן COROLLA 2007 02/09/2026 03:43:00
41584103 גילי סין GEOMETRY C 2023 02/09/2026 03:42:56
1171884 רנו ספרד CAPTUR 2017 02/09/2026 03:42:55
1817133 רנו טורקיה CLIO 2015 02/09/2026 03:42:51
4652250 פולקסווגן ספרד POLO 2003 02/09/2026 03:42:48
17342101 יונדאי צ'כיה TUCSON 2018 02/09/2026 03:42:48
56850104 צ'רי סין FX HEV 2026 02/09/2026 03:42:47
22226001 פורשה גרמניה PANAMERA 4 E-HY 2018 02/09/2026 03:42:46
17342101 יונדאי צ'כיה TUCSON 2018 02/09/2026 03:42:46
5010938 פולקסווגן פורטוגל SCIROCCO 2016 02/09/2026 03:42:43
19494102 טויוטה טורקיה C-HR HYBRID 2020 02/09/2026 03:42:40
48944203 סיטרואן ספרד BERLINGO 2023 02/09/2026 03:42:29
50596403 צ'רי סין TIGGO 8 PRO 2023 02/09/2026 03:42:28
34115004 טויוטה ספרד TOYOTA CITY 2025 02/09/2026 03:42:24
20244602 מיצובישי יפן ASX 2020 02/09/2026 03:42:23
8428436 פיג'ו צרפת 406 2002 02/09/2026 03:42:21
53603801 מיצובישי יפן ASX 2019 02/09/2026 03:42:20
5710755 מרצדס בנץ גרמנ - 2017 02/09/2026 03:42:18
92630301 קיה סלובקיה CEED 2016 02/09/2026 03:42:13
82909402 טויוטה צרפת YARIS HYBRID 2022 02/09/2026 03:42:03
60120801 מזדה יפן CX-5 2019 02/09/2026 03:42:03
3737439 שברולט קוריאה הדרומית SPARK 2016 02/09/2026 03:41:59
5994051 רנו צרפת - 2003 02/09/2026 03:41:59
2924110 סקודה צ'כיה OCTAVIA 2003 02/09/2026 03:41:56
6958526 מרצדס גרמניה C200D 2022 02/09/2026 03:41:55
32888402 לקסוס יפן LEXUS UX200 2020 02/09/2026 03:41:55
1126674 יונדאי צ'כיה I30 2010 02/09/2026 03:41:54
39009701 סקודה צ'כיה RAPID 2018 02/09/2026 03:41:51
30191302 שברולט ארהב" - 2021 02/09/2026 03:41:49
1586133 רנו צרפת KANGOO 2015 02/09/2026 03:41:48
76447104 ג'י.אמ.סי ארה - 2026 02/09/2026 03:41:47
27111982 פורד ארהב" BRONCO 2025 02/09/2026 03:41:45
84742003 קיה סלובקיה SPORTAGE 2024 02/09/2026 03:41:42
6377710 טויוטה יפן MR 2 2001 02/09/2026 03:41:39
40358601 סובארו יפן BRZ 2018 02/09/2026 03:41:37
4377766 מיצובישי יפן LANCER 2008 02/09/2026 03:41:36
1805535 פולקסווגן גרמניה PASSAT 2001 02/09/2026 03:41:34
77780803 יונדאי קוריאה הדרומית KONA HYBRID 2024 02/09/2026 03:41:30
65114404 צ'רי סין TIGGO 4 HYBRID 2026 02/09/2026 03:41:24
2754332 קאדילאק מקסיקו SRX 2014 02/09/2026 03:41:23
1125433 פיאט טורקיה DOBLO 1.6COMBY 2015 02/09/2026 03:41:21
3585933 קיה קוריאה הדרומית PICANTO 2015 02/09/2026 03:41:16
60973302 סיאט צ'כיה ATECA STYLE 2021 02/09/2026 03:41:03
4305065 ביואיק ארהב" LUCERNE 2008 02/09/2026 03:41:02
5998300 ג'ון דיר ארהב" - 1993 02/09/2026 03:41:01
32888402 לקסוס יפן LEXUS UX200 2020 02/09/2026 03:40:59
1503771 סקודה צ'כיה FABIA 2010 02/09/2026 03:40:55
1127064 שברולט קוריאה הדרומית AVEO 2008 02/09/2026 03:40:53
5951116 ב מ וו גרמניה 320I 2008 02/09/2026 03:40:52
2026762 פולקסווגן גרמניה GOLF 2007 02/09/2026 03:40:52
88572403 דאבל יו אם איי סין W5 2024 02/09/2026 03:40:50
84065602 אאודי גרמניה A4 2022 02/09/2026 03:40:49
66230404 יונדאי קוריאה הדרומית ELANTRA HEV 2026 02/09/2026 03:40:49
4293017 הונדה יפן ACCORD 1999 02/09/2026 03:40:48
45115302 רנו טורקיה MEGANE 2021 02/09/2026 03:40:46
1706230 מזדה יפן CX-5 2016 02/09/2026 03:40:43
24025601 הונדה בריטניה CIVIC 2017 02/09/2026 03:40:41
28261601 סיטרואן ספרד C4 CACTUS 2018 02/09/2026 03:40:38
5300239 מרצדס בנץ גרמנ - 2017 02/09/2026 03:40:38
9207874 ע.ג.מ - 2013 02/09/2026 03:40:36
7072570 הונדה יפן ACCORD 2010 02/09/2026 03:40:32
85888903 אאודי סלובקיה Q8 2024 02/09/2026 03:40:30
2077765 פורד בלגיה MONDEO 2008 02/09/2026 03:40:29
4239859 סובארו יפן XV 2014 02/09/2026 03:40:29
77500003 טסלה גרמניה MODEL Y 2024 02/09/2026 03:40:26
1127460 יונדאי קוריאה הדרומית GETZ 2007 02/09/2026 03:40:25
24938001 איסוזו תאילנד PICK-UP 2017 02/09/2026 03:40:24
9370238 קיה סלובקיה SPORTAGE 2016 02/09/2026 03:40:20
62227003 רנו צרפת - 2024 02/09/2026 03:40:16
5066331 הונדה יפן ACCORD 2014 02/09/2026 03:40:15
19848403 מרצדס בנץ גרמנ - 2023 02/09/2026 03:40:15
7868312 סיטרואן סלובקיה C3 PICASSO 2013 02/09/2026 03:40:14
2819382 פורד ארהב" - 1982 02/09/2026 03:40:13
3015332 שברולט ארהב" TRAVERSE 2014 02/09/2026 03:40:12
25061804 פיג'ו ספרד 208 2025 02/09/2026 03:40:12
6779303 סובארו יפן - 1992 02/09/2026 03:40:12
8347513 יונדאי טורקיה I20 2012 02/09/2026 03:40:09
2343138 פולקסווגן גרמניה GOLF 2016 02/09/2026 03:40:07
7427971 פורד גרמניה FOCUS 2011 02/09/2026 03:40:06
1680731 מיצובישי תאילנד SPACE STAR 2014 02/09/2026 03:40:04
59239503 איויאיסי סין LIMO 2024 02/09/2026 03:40:03
23372402 אוובוס ספרד - 2023 02/09/2026 03:40:02
64523704 ג'אקו סין JAECOO8 PHEV 2026 02/09/2026 03:40:02
13505004 פולקסווגן פורטוגל T-ROC 2025 02/09/2026 03:39:59
5969430 טויוטה טורקיה COROLLA 2014 02/09/2026 03:39:58
5372811 מרצדס הונגריה CLA200 2014 02/09/2026 03:39:57
62095902 מרצדס בנץ גרמנ - 2022 02/09/2026 03:39:57
7915337 רנו טורקיה FLUENCE 2016 02/09/2026 03:39:56
53550503 מרצדס גרמניה S580E 2023 02/09/2026 03:39:54
41014503 בי ווי די סין ATTO 3 2023 02/09/2026 03:39:54
1075066 קאדילאק ארהב" CTS 2008 02/09/2026 03:39:53
7714714 טויוטה יפן LAND CRUISER 2006 02/09/2026 03:39:50
4950079 קיה קוריאה הדרומית PICANTO 2012 02/09/2026 03:39:47
61646103 ימהה צרפת - 2024 02/09/2026 03:39:46
25608601 שברולט קוריאה הדרומית SPARK 2019 02/09/2026 03:39:45
5779250 איסוזו יפן TROOPER 2003 02/09/2026 03:39:43
44772701 טויוטה טורקיה C-HR 2018 02/09/2026 03:39:42
6502056 פורד ארהב" - 2003 02/09/2026 03:39:41
60194403 רנו טורקיה MEGANE 2024 02/09/2026 03:39:39
3800838 אאודי ספרד Q3 2016 02/09/2026 03:39:36
65241801 גולדן דרגון סי - 2019 02/09/2026 03:39:35
4231635 פולקסווגן גרמניה PASSAT 2001 02/09/2026 03:39:34
6476161 הונדה יפן CIVIC 2007 02/09/2026 03:39:34
76118703 בי ווי די סין ATTO 3 2024 02/09/2026 03:39:32
2414011 יונדאי צ'כיה I30 2013 02/09/2026 03:39:32
1922413 דאף אנגליה - 2007 02/09/2026 03:39:31
62086404 טסלה סין MODEL 3 2026 02/09/2026 03:39:28
3288433 ניסאן הודו MICRA 2015 02/09/2026 03:39:26
3740155 דיילים ד.קוריא - 2018 02/09/2026 03:39:26
53957103 יונדאי קוריאה הדרומית VENUE 2023 02/09/2026 03:39:23
2172173 יונדאי טורקיה ACCENT 2010 02/09/2026 03:39:22
4289412 סיאט ספרד IBIZA 2013 02/09/2026 03:39:20
23979704 סובארו יפן FORESTER 2025 02/09/2026 03:39:14
1660258 ג'י.אמ.סי ארה - 1988 02/09/2026 03:39:13
62381504 ניסאן בריטניה QASHQAI 2026 02/09/2026 03:39:12
88226203 סיטרואן פורטוגל BERLINGO 2025 02/09/2026 03:39:10
73662903 מזדה יפן MAZDA3 2024 02/09/2026 03:39:09
28700403 סקניה-הולנד - 2024 02/09/2026 03:39:07
43166801 קיה קוריאה הדרומית NIRO 2019 02/09/2026 03:38:58
55117601 מרצדס גרמניה E200 2019 02/09/2026 03:38:57
3329060 הונדה יפן - 2005 02/09/2026 03:38:55
36416903 בי ווי די סין ATTO 3 2022 02/09/2026 03:38:50
54954903 קיה סלובקיה SPORTAGE 2023 02/09/2026 03:38:48
1123510 טויוטה יפן COROLLA 2001 02/09/2026 03:38:42
92682201 קיה סלובקיה CEED 2014 02/09/2026 03:38:42
85888903 אאודי סלובקיה Q8 2024 02/09/2026 03:38:40
6254716 ב מ וו גרמניה 523I 2010 02/09/2026 03:38:37
9407584 סוזוקי תאילנד CELERIO 2017 02/09/2026 03:38:34
52816303 סיטרואן צרפת C5 AIRCROSS 2024 02/09/2026 03:38:32
6306874 יונדאי צ'כיה I30 2011 02/09/2026 03:38:30
43619602 טויוטה תאילנד HILUX 2021 02/09/2026 03:38:26
11892804 מרצדס בנץ גרמנ - 2025 02/09/2026 03:38:25
39646401 סיאט ספרד IBIZA 2018 02/09/2026 03:38:21
49827303 סובארו יפן FORESTER 2023 02/09/2026 03:38:18
364953 פולקסווגן גרמנ - 1974 02/09/2026 03:38:16
4022655 מזדה יפן MAZDA 3 2017 02/09/2026 03:38:12
76483604 רולס-רויס בריטניה GHOST 2026 02/09/2026 03:38:12
9728575 סובארו יפן - 2013 02/09/2026 03:38:10
3998614 טויוטה בריטניה COROLLA RUNX 2006 02/09/2026 03:38:08
59993103 רנו קוריאה הדרומית ARKANA 2024 02/09/2026 03:38:05
55082903 קיה קוריאה הדרומית NIRO PLUS PHEV 2023 02/09/2026 03:38:02
6930439 יונדאי קוריאה הדרומית I25 2016 02/09/2026 03:38:01
2244470 טויוטה יפן LEXUS RX 450H 2009 02/09/2026 03:37:55
3825167 סקודה צ'כיה OCTAVIA 2009 02/09/2026 03:37:54
87940403 סיטרואן פורטוגל BERLINGO 2025 02/09/2026 03:37:52
וואטסאפ